CAPE
0 0 0 0 0 0 0 0 0 0 0 0 0 0 0 0 0 0 0 0 0 0 0 0 0 0 0 0 0 0 0 0 0 0 0 0 0 0 0 0 0 0 0 0
0 0 0 0 0 0 0 0 0 0 0 0 0 0 0 0 0 0 0 0 0 0 0 0 0 0 0 0 0 0 0 0 0 0 0 0 0 0 0 0 0 0 0 0
0 0 0 0 0 0 0 0 0 0 0 0 0 0 0 0 0 0 0 0 0 0 0 0 0 0 0 0 0 0 0 0 0 0 0 0 0 0 0 0 0 0 0 0
0 0 0 0 0 0 0 0 0 0 0 0 0 0 0 0 0 0 0 0 0 0 0 0 0 0 0 0 0 0 0 0 0 0 0 0 0 0 0 0 0 0 0 0
0 0 0 0 0 0 0 0 0 0 0 0 0 0 0 0 0 0 0 0 0 0 0 0 0 0 0 0 0 0 0 0 0 0 0 0 0 0 0 0 0 0 0 0
0 0 0 0 0 0 0 0 0 0 0 0 0 0 0 0 0 0 0 0 0 0 0 0 0 0 0 0 0 0 0 0 0 0 0 0 0 0 0 0 0 0 0 0
0 0 0 0 0 0 0 0 0 0 0 0 0 0 0 0 0 0 0 0 0 0 0 0 0 0 0 0 0 0 0 0 0 0 0 0 0 0 0 0 0 0 0 0
2 0 0 0 0 0 0 0 0 0 0 0 0 0 0 0 0 0 0 0 0 0 0 0 0 0 0 0 0 0 0 0 0 0 0 0 0 0 0 0 0 0 0 0
1 2 0 0 0 0 0 0 0 0 0 0 0 0 0 0 0 0 0 0 0 0 0 0 0 0 0 0 0 0 0 0 0 0 0 0 0 0 0 0 0 0 0 0
1 1 1 0 0 0 0 0 0 0 0 0 0 0 0 0 0 0 0 0 0 0 0 0 0 0 0 0 0 0 0 0 0 0 0 0 0 0 0 0 0 0 0 0
0 1 1 2 0 0 0 1 0 0 0 0 0 0 0 0 0 0 0 0 0 0 0 0 0 0 0 0 0 0 0 0 0 0 0 0 0 0 0 0 0 0 0 0
1 0 0 2 2 0 1 1 0 0 0 1 0 0 0 0 0 0 0 0 0 0 0 0 0 0 0 0 0 0 0 0 0 0 0 0 0 0 0 0 0 0 0 0
0 0 1 2 3 2 1 1 1 0 0 0 0 0 0 0 0 0 0 0 0 0 0 0 0 0 0 0 0 0 0 0 0 0 0 0 0 0 1 0 0 0 0 0
1 1 2 1 1 3 0 0 0 0 0 0 1 0 0 0 0 0 0 0 0 0 0 0 0 0 0 1 0 0 0 0 0 0 0 0 5 4 0 0 0 0 0 0
1 1 3 2 0 1 8 1 0 0 2 1 4 0 0 0 0 0 0 0 0 0 0 0 1 1 0 0 1 1 0 0 0 0 0 3 0 0 0 0 0 0 0 0
0 2 3 2 4 5 1 1 1 0 1 1 0 0 0 0 0 1 1 1 0 0 1 0 0 0 0 0 0 0 0 0 0 0 1 4 6 0 0 0 0 0 0 1
0 2 4 6 19 11 1 0 1 0 3 0 0 1 0 0 1 1 0 2 0 0 0 0 0 0 0 0 1 0 0 0 0 0 1 12 12 0 0 0 0 2 1 2
1 2 7 11 6 0 0 0 0 0 0 0 0 0 0 0 1 0 2 3 1 1 1 2 1 0 1 2 0 0 0 1 2 5 6 1 0 0 0 0 1 0 2 0
3 8 1 0 0 0 0 0 0 0 0 0 0 0 0 0 1 1 0 1 0 2 3 1 3 2 1 0 0 0 0 0 0 0 0 0 0 0 0 0 0 0 0 0
6 2 0 0 1 0 0 0 0 0 0 0 0 0 0 0 1 0 0 0 1 0 0 0 1 0 0 0 0 0 0 0 0 0 0 0 2 0 0 0 0 0 0 0
6 4 0 1 0 0 1 0 0 0 0 0 0 0 0 0 0 0 0 0 0 0 1 0 1 0 0 0 0 0 0 0 0 0 0 0 0 0 0 0 0 0 0 0
1 0 0 0 0 0 0 0 0 0 0 0 2 1 1 0 0 0 0 0 1 0 0 2 0 0 0 0 0 0 0 0 0 0 0 0 0 0 0 0 0 0 0 0
0 0 0 0 0 0 0 0 0 0 0 0 1 0 1 0 0 0 0 0 0 0 1 0 0 0 0 0 0 0 0 0 0 0 0 0 0 0 0 0 0 0 0 0
0 0 0 0 0 0 0 0 0 0 0 0 1 1 0 1 0 1 2 0 0 2 0 0 0 0 0 0 0 0 0 0 0 0 0 0 0 0 0 0 0 0 0 0
0 0 0 0 0 0 0 0 0 0 0 0 0 0 0 1 1 1 1 1 1 1 0 0 0 0 0 0 0 0 0 0 0 0 0 0 0 0 0 0 0 0 0 0
0 0 0 0 0 0 0 0 0 0 0 0 0 0 1 1 0 2 0 2 0 0 0 0 0 0 0 0 0 0 0 0 0 0 0 0 0 0 0 0 0 0 0 0
0 1 0 0 0 0 0 0 0 0 0 0 0 0 0 0 1 0 0 0 0 0 0 0 0 0 0 0 0 0 0 0 0 0 0 0 0 0 0 0 0 0 0 0
CIN
0 0 0 0 0 0 0 0 0 0 0 0 0 0 -1 0 0 0 0 0 0 0 0 0 0 0 0 0 0 0 0 0 0 0 0 0 0 0 0 0 0 0 0 0
0 0 0 0 0 0 0 0 0 0 0 0 0 0 0 0 0 0 0 0 0 0 0 0 0 0 0 0 0 0 0 0 0 0 0 0 0 0 0 0 0 0 0 0
0 0 0 0 0 0 0 0 0 0 0 0 0 0 0 0 0 0 0 0 0 0 0 0 0 0 0 0 0 0 0 0 0 0 0 0 0 0 0 0 0 0 0 0
0 0 0 0 0 0 0 0 0 0 0 0 0 0 0 0 0 0 0 0 0 0 0 0 0 0 0 0 0 0 0 0 0 0 0 0 0 0 0 0 0 0 0 0
0 0 0 0 0 0 0 0 0 0 0 0 0 0 0 0 0 0 0 0 0 0 0 0 0 0 0 0 0 0 0 0 0 0 0 0 0 0 0 0 0 0 0 0
0 0 0 0 0 0 0 0 0 0 0 0 0 0 0 0 0 0 0 0 0 0 0 0 0 0 0 0 0 0 0 0 0 0 0 0 0 0 0 0 0 0 0 0
0 0 0 0 0 0 0 0 0 0 0 0 0 0 0 0 0 0 0 0 0 0 0 0 0 0 0 0 0 0 0 0 0 0 0 0 0 0 0 0 0 0 0 0
0 0 0 0 0 0 0 0 0 0 0 0 0 0 0 0 0 0 0 0 0 0 0 0 0 0 0 0 0 0 0 0 0 0 0 0 0 0 0 0 0 0 0 0
0 0 0 0 0 0 0 0 0 0 0 0 0 0 0 0 0 0 0 0 0 0 0 0 0 -1 0 0 0 0 0 0 0 0 0 0 0 0 0 0 0 0 0 0
0 0 0 0 0 0 0 0 0 0 0 0 0 0 0 0 0 0 0 0 0 0 0 0 0 0 0 0 0 0 0 0 0 0 0 0 0 0 0 0 0 0 0 0
-1 0 0 0 0 0 0 0 0 0 0 0 0 0 0 0 0 0 0 0 0 0 0 0 0 0 0 0 0 0 0 0 0 0 0 0 0 0 0 0 0 0 0 0
-3 -2 0 0 0 0 0 0 0 0 0 0 0 0 0 0 0 0 0 0 0 0 0 0 0 0 0 0 0 0 0 0 0 0 0 0 0 0 0 0 0 0 0 0
-1 0 0 0 0 0 0 0 0 0 0 0 0 0 0 0 0 0 0 0 0 0 0 0 0 0 0 0 0 0 0 0 0 0 0 0 0 0 -5 0 0 0 0 0
-2 -3 -1 -1 0 0 0 0 0 0 0 0 0 0 0 0 0 0 0 0 0 0 0 0 0 0 0 0 0 0 0 0 0 0 -1 0 -1 -9 0 0 0 0 0 0
-1 -2 0 0 0 0 0 0 0 -7 0 0 0 0 0 0 0 0 0 0 0 0 0 0 0 0 0 0 0 0 0 0 0 0 0 -4 0 0 0 0 0 0 0 0
-1 -3 -2 -3 -3 -1 0 0 0 -1 0 0 0 0 0 0 0 0 0 -1 0 -2 0 0 0 0 0 0 0 0 0 0 0 0 -1 -1 -1 0 0 0 0 0 0 0
-1 -3 -5 -6 0 -1 0 -2 0 0 0 0 0 0 0 0 0 0 -1 -1 0 0 0 0 0 0 0 0 0 0 0 0 0 0 0 -4 -6 0 0 0 0 0 0 0
-5 -7 -1 0 -6 0 -1 0 0 0 0 0 0 0 0 0 0 0 0 0 0 0 0 0 0 0 -2 -4 0 0 0 0 -1 -2 -3 -4 0 0 0 0 0 0 0 0
-5 -2 -3 0 0 -1 0 0 0 0 0 0 0 0 0 0 0 0 0 0 0 0 0 0 -3 -2 -1 0 0 0 0 0 0 0 0 0 0 0 0 0 0 0 0 0
-4 -11 -4 0 0 0 0 0 0 0 0 0 0 0 0 0 0 0 0 -1 0 0 0 0 0 0 0 0 0 0 0 0 0 0 0 0 0 0 0 0 0 0 0 0
-2 0 0 0 0 0 0 0 -3 -3 0 0 0 0 0 0 0 0 0 0 0 0 0 0 0 0 0 0 0 0 0 0 0 0 0 0 0 0 0 0 0 0 0 0
-5 0 0 0 0 0 -1 0 0 0 0 0 0 0 0 0 0 0 0 0 0 0 0 0 0 0 0 0 0 0 0 0 0 0 0 0 0 0 0 0 0 0 0 0
0 0 0 0 0 0 0 0 0 0 0 0 0 0 0 0 0 0 0 0 0 0 0 0 0 0 0 0 0 0 0 0 0 0 0 0 0 0 0 0 0 0 0 0
0 0 0 0 0 0 0 0 0 0 0 0 0 0 0 0 0 0 0 0 0 0 0 0 0 0 0 0 0 0 0 0 0 0 0 0 0 0 0 0 0 0 0 0
-5 0 0 0 0 0 0 0 0 0 0 0 0 0 0 0 0 0 0 0 0 0 0 0 0 0 0 0 0 0 0 0 0 0 0 0 0 0 0 0 0 0 0 0
0 0 0 0 0 0 0 0 0 0 0 0 0 0 0 0 0 0 0 0 0 0 0 0 0 0 0 0 0 0 0 0 0 0 0 0 0 0 0 0 0 0 0 0
0 0 0 0 0 0 0 0 0 0 0 0 0 0 0 0 0 0 0 0 0 0 0 0 0 0 0 0 0 0 0 0 0 0 0 0 0 0 0 0 0 0 0 0
Wind_Speed
11 17 17 17 16 16 13 14 14 10 8 22 18 3 8 4 13 14 13 10 8 10 14 12 13 11 14 15 14 15 15 17 15 16 16 17 18 19 17 21 21 22 25 26
12 10 17 16 15 13 14 13 14 9 10 2 5 10 2 5 8 7 14 14 13 16 14 10 9 9 9 9 12 14 15 17 17 19 19 19 20 19 21 24 24 27 26 25
10 9 15 16 15 14 14 15 13 9 4 7 2 1 5 7 8 7 9 11 14 15 12 10 11 10 12 11 12 14 15 18 21 21 19 19 20 21 21 23 29 31 29 33
12 10 11 15 15 14 16 15 13 13 9 9 4 6 13 9 12 9 9 10 9 12 13 8 10 10 9 12 14 15 17 20 23 25 27 28 29 29 26 24 24 30 33 38
10 11 11 14 14 15 15 17 15 11 10 11 11 12 12 11 11 11 10 11 12 11 10 11 12 12 15 16 16 17 19 23 26 32 34 33 32 29 26 24 24 28 31 36
13 12 13 13 14 14 14 15 15 17 14 12 13 14 12 14 15 14 13 13 12 11 13 14 16 18 18 17 19 19 20 23 27 28 25 30 36 20 14 15 17 21 28 28
15 16 15 16 15 13 14 15 17 18 14 16 13 14 15 14 14 12 15 15 17 16 16 20 22 24 25 24 22 20 23 23 26 30 29 29 21 22 24 22 22 23 28 33
10 20 19 19 19 16 15 15 16 18 14 14 16 18 16 15 16 17 18 18 17 16 20 22 21 19 19 19 21 21 17 18 21 23 23 28 32 21 23 26 29 30 31 32
18 15 22 21 21 21 17 16 16 16 18 21 17 15 16 17 15 15 16 17 15 16 17 19 20 21 21 17 17 20 17 15 17 22 28 29 21 27 27 32 45 28 25 26
18 19 18 21 22 22 20 19 18 17 18 18 18 20 19 17 17 17 17 16 16 17 19 23 24 25 22 23 23 22 22 21 16 20 29 30 28 28 27 34 39 30 30 29
18 18 19 19 19 20 18 18 20 19 20 21 20 19 20 18 18 23 15 17 20 20 24 25 24 24 23 24 23 24 23 24 25 24 30 42 22 25 28 34 34 33 31 29
18 17 17 19 19 14 17 19 20 19 20 22 22 25 26 21 18 19 17 21 20 19 21 22 23 26 27 27 28 25 24 20 26 23 27 26 28 30 34 36 35 32 29 29
18 17 17 17 18 18 18 19 16 17 20 23 25 27 30 28 22 19 21 23 21 20 20 22 25 27 25 26 28 27 28 24 29 33 29 34 37 39 38 32 31 32 31 30
19 17 17 17 18 18 16 18 18 20 19 21 20 21 23 22 21 21 22 21 18 18 19 23 25 28 24 29 30 32 31 34 35 36 38 42 37 35 38 31 30 30 31 33
18 18 17 17 17 18 17 20 20 21 21 18 18 22 23 23 22 20 18 19 20 22 23 24 26 26 28 29 30 35 32 34 37 42 39 44 45 41 39 38 34 31 31 32
18 16 15 18 17 16 17 19 20 20 20 23 22 20 18 17 18 19 18 18 18 19 21 23 24 24 26 33 36 36 32 30 31 39 36 38 39 38 38 36 31 30 30 29
17 15 15 17 17 17 18 18 18 18 15 21 22 21 18 17 17 18 18 19 21 22 24 26 28 27 25 34 43 36 35 36 37 37 38 41 37 40 34 32 30 29 28 26
14 13 14 14 13 14 19 20 19 14 16 19 21 22 23 20 20 19 19 21 23 23 26 27 29 27 28 36 33 34 35 35 35 34 34 34 33 33 32 28 26 25 24 22
10 8 10 14 17 17 19 19 19 18 20 21 22 23 25 21 21 21 23 24 28 26 28 28 26 27 30 31 34 35 35 38 41 35 34 33 32 30 27 24 23 22 22 22
6 12 16 18 18 17 18 18 19 19 22 23 26 24 25 22 22 23 24 25 27 31 28 25 30 33 31 33 33 36 38 38 35 36 37 32 31 26 23 21 20 20 20 21
14 17 18 15 15 16 19 21 21 22 25 23 25 24 25 22 24 24 24 28 28 34 32 31 34 38 33 29 28 29 31 31 31 28 29 26 25 21 19 19 17 18 20 22
13 11 11 13 18 20 21 21 21 22 25 21 21 20 19 20 19 22 22 28 26 33 26 32 37 33 28 27 27 28 29 29 27 26 25 22 18 16 16 16 18 20 23 25
11 16 18 19 21 25 25 26 23 22 20 19 18 21 20 20 19 22 24 28 31 27 32 36 34 31 27 28 29 29 28 27 25 23 20 17 16 14 15 18 20 23 27 29
18 19 25 25 23 25 24 25 22 19 18 17 19 22 23 21 22 23 29 27 28 34 38 40 34 30 27 28 28 28 28 25 22 19 17 16 16 17 19 21 24 27 30 31
21 21 28 27 24 24 22 20 21 20 16 17 21 23 22 24 26 25 26 28 32 30 35 32 30 27 30 31 28 27 25 21 19 18 17 16 16 19 22 24 27 28 30 32
24 25 26 22 22 23 21 20 22 18 16 19 22 25 28 29 27 27 28 32 36 37 30 31 30 31 31 29 27 24 22 20 18 17 17 18 19 22 25 27 28 30 32 34
27 29 27 27 29 30 29 26 24 16 19 26 25 28 28 24 29 31 28 35 37 32 31 30 28 31 29 27 25 23 20 18 18 18 18 20 22 24 27 31 31 32 34 35
Wind_Direction
101 276 279 286 285 285 243 224 209 274 257 169 184 178 208 236 213 214 214 221 222 221 214 229 239 247 253 255 253 258 267 268 269 278 289 293 294 294 298 299 304 303 307 309
94 230 277 282 284 288 241 233 210 237 204 107 135 186 192 226 238 265 214 214 223 208 216 242 246 256 269 267 263 266 270 272 272 283 291 295 295 299 299 299 305 300 301 312
103 139 274 278 279 279 242 231 228 222 212 204 69 219 235 230 239 240 236 227 214 212 231 256 240 248 262 276 287 287 286 282 280 287 296 307 301 303 306 299 297 298 297 301
94 128 232 273 271 270 237 232 228 230 233 220 273 252 207 218 221 247 270 259 264 255 249 277 263 274 292 289 286 293 291 283 286 287 292 295 296 297 300 298 298 296 303 301
144 133 173 247 271 262 241 229 234 247 256 254 235 230 229 233 241 250 262 249 253 271 284 290 282 295 288 296 302 304 302 294 297 290 292 296 299 304 302 298 297 297 302 305
194 160 159 212 259 257 246 235 237 236 251 261 258 250 257 250 242 247 260 260 272 293 288 291 291 289 297 308 305 309 311 305 303 303 315 312 304 312 303 309 307 312 312 318
186 208 173 181 223 267 250 250 247 247 254 249 258 252 250 260 265 294 264 271 266 287 315 306 298 292 291 296 301 307 304 310 309 305 314 310 325 324 322 319 316 314 312 314
23 220 222 188 188 241 253 260 262 254 261 266 260 259 271 275 274 275 278 292 310 320 305 299 303 312 311 312 311 307 309 311 316 318 318 316 318 326 320 318 315 315 312 316
298 305 242 233 207 198 241 263 268 272 264 263 274 275 278 286 294 303 311 317 338 322 312 302 304 305 312 318 324 319 322 315 313 319 315 315 330 329 330 323 314 332 329 322
303 289 285 261 247 237 247 257 269 275 272 273 272 274 278 288 290 294 308 317 320 315 304 277 282 283 295 299 301 308 317 317 313 313 312 315 321 324 328 316 319 326 324 320
306 301 286 279 273 263 273 276 260 271 273 273 279 283 279 285 292 280 302 301 299 298 286 281 284 287 297 303 309 316 316 318 316 318 315 312 328 327 317 319 321 319 319 320
308 301 298 284 278 281 275 279 273 275 278 271 272 266 267 280 290 291 292 292 299 301 293 292 295 293 298 306 314 312 313 310 317 313 314 320 324 318 316 316 313 315 314 317
308 302 295 292 283 277 276 282 281 279 287 286 283 278 265 272 280 290 292 294 301 301 305 302 300 302 306 312 313 312 311 308 306 311 309 310 313 316 318 314 312 315 315 314
302 302 294 288 284 282 278 283 278 279 287 289 292 285 282 287 283 282 282 300 307 307 303 302 305 305 308 310 310 312 314 315 311 305 308 312 315 323 328 324 320 318 317 316
303 301 296 288 285 280 280 279 279 276 279 293 294 288 285 286 288 288 288 286 297 301 301 303 305 310 312 312 313 311 311 309 307 307 314 314 316 322 322 319 314 315 315 317
300 303 299 286 284 281 281 284 282 277 281 282 289 296 296 300 296 291 291 292 296 301 306 308 311 314 312 311 311 318 316 312 307 309 314 314 315 320 322 318 316 317 316 316
296 298 296 286 280 277 282 285 291 289 276 282 286 288 300 305 300 300 300 299 302 302 304 303 307 309 309 309 308 314 318 315 314 314 315 314 316 319 322 320 319 319 320 322
297 295 293 287 286 283 277 284 296 293 289 289 290 289 289 300 298 300 304 305 306 305 305 308 307 310 309 310 311 317 319 321 321 319 320 320 321 322 322 322 322 322 323 325
295 301 300 292 287 285 283 288 288 290 287 289 289 289 295 299 298 301 305 307 304 309 305 307 311 307 305 313 318 318 321 321 321 322 322 323 323 324 326 325 325 325 325 326
291 290 288 286 289 291 293 295 291 285 289 291 289 289 290 298 302 303 305 308 306 305 308 316 307 303 308 311 312 315 318 321 324 322 321 323 322 323 324 324 327 328 329 330
281 281 283 294 296 295 293 288 286 288 290 294 295 286 288 298 296 298 306 306 309 305 308 309 310 313 318 320 321 325 327 327 325 322 322 322 322 320 322 325 328 330 330 329
281 292 306 302 291 290 287 286 293 290 291 298 298 299 299 303 306 302 306 304 308 304 316 311 311 322 327 329 330 331 332 333 332 330 328 328 328 327 327 329 329 328 329 329
284 287 286 285 285 278 280 280 288 291 297 299 300 301 305 306 305 303 305 302 301 312 306 307 314 324 326 328 329 331 333 334 333 333 336 337 336 336 334 331 330 329 327 328
275 275 273 276 282 283 282 284 293 298 302 302 302 302 302 303 299 302 302 304 307 302 303 307 315 320 325 330 330 331 331 331 332 333 334 333 331 329 330 329 328 327 327 328
270 276 277 275 280 286 292 296 298 303 307 302 304 303 300 299 299 301 302 304 302 307 312 315 322 325 326 327 328 329 330 330 329 329 328 327 327 327 327 326 326 328 329 328
271 273 275 283 285 285 289 295 296 300 300 306 305 301 298 294 296 295 294 299 301 308 311 317 321 322 324 325 326 327 328 327 326 324 323 323 324 324 325 327 328 328 328 327
270 269 271 277 284 287 292 294 292 291 291 293 300 296 293 303 298 296 298 297 303 308 312 316 319 320 322 324 324 325 325 325 324 323 323 323 324 326 326 324 328 329 328 327